Location: Newark
(17.9939°S, 31.0481°E)
Time: 17:41:37
(UTC+00:00)

LightSail 2 - Visible Passes

Search period start: 23 October 2019 00:00
Search period end: 02 November 2019 00:00
Orbit: 707 x 722 km, 24.0° (Epoch: 22 October)

Date Brightness Start Highest point End Pass type
(mag) Time Alt. Az. Time Alt. Az. Time Alt. Az.
23 Oct 7.0 00:45:55 27° SE 00:45:55 27° SE 00:48:33 10° ESE visible
23 Oct 5.9 02:24:55 12° WSW 02:29:35 49° S 02:34:36 10° E visible
24 Oct 5.9 01:30:50 40° SSW 01:31:50 44° S 01:36:49 10° ESE visible
25 Oct 7.3 00:36:49 23° ESE 00:36:49 23° ESE 00:39:01 10° ESE visible
25 Oct 5.5 02:15:49 16° WSW 02:20:00 63° SSE 02:25:09 10° E visible
26 Oct 5.6 01:21:52 52° S 01:22:16 53° S 01:27:21 10° E visible
27 Oct 7.6 00:27:59 19° ESE 00:27:59 19° ESE 00:29:32 10° E visible
27 Oct 5.1 02:07:00 23° WSW 02:10:18 88° SSE 02:15:31 10° ENE visible
27 Oct 7.6 18:05:10 10° NNW 18:05:24 11° NNW 18:05:24 11° NNW visible
28 Oct 5.5 01:13:13 63° ESE 01:13:13 63° ESE 01:17:48 10° E visible
28 Oct 5.7 02:53:10 10° W 02:58:07 44° NNW 03:03:03 10° NE visible
28 Oct 6.6 17:08:14 10° NNW 17:11:56 20° NNE 17:12:00 20° NNE visible
29 Oct 7.9 00:19:31 13° E 00:19:31 13° E 00:20:00 10° E visible
29 Oct 5.2 01:58:32 36° W 02:00:29 60° NNW 02:05:37 10° ENE visible
29 Oct 6.3 17:54:42 10° NW 17:57:38 31° NNW 17:57:38 31° NNW visible
30 Oct 6.3 01:04:56 36° ENE 01:04:56 36° ENE 01:08:01 10° ENE visible
30 Oct 6.3 02:43:58 10° W 02:48:13 26° NNW 02:52:30 10° NNE visible
30 Oct 5.9 16:57:23 10° NW 17:02:01 34° NNE 17:04:12 24° ENE visible
30 Oct 7.6 18:42:17 10° WNW 18:43:15 16° WNW 18:43:15 16° WNW visible
31 Oct 5.8 01:50:26 36° NNW 01:50:34 36° NNW 01:55:19 10° NE visible
31 Oct 5.0 17:44:36 10° WNW 17:49:45 76° NNE 17:49:45 76° NNE visible
01 Nov 7.4 00:56:57 15° NE 00:56:57 15° NE 00:57:56 10° NE visible
01 Nov 6.9 02:36:00 12° NW 02:38:15 15° NNW 02:41:08 10° N visible
01 Nov 5.3 16:47:02 10° WNW 16:52:04 57° NNE 16:56:10 15° E visible
01 Nov 6.8 18:32:34 10° W 18:35:12 30° W 18:35:12 30° W visible
